Location: Tel Aviv
(32.0670°N, 34.7670°E)
Time: 07:23:50
(UTC+02:00)

YUBILEINY - Visible Passes

Search period start: 07 March 2026 00:00
Search period end: 17 March 2026 00:00
Orbit: 1478 x 1508 km, 82.5° (Epoch: 6 March)

Date Brightness Start Highest point End Pass type
(mag) Time Alt. Az. Time Alt. Az. Time Alt. Az.
7 Mar ? 03:53:39 10° N 04:02:22 72° E 04:11:01 10° SSE visible
7 Mar ? 18:50:37 10° W 18:54:33 13° WNW 18:58:31 10° NW visible
8 Mar ? 03:04:33 10° N 03:12:29 38° ENE 03:20:20 10° SE visible
8 Mar ? 05:01:19 10° NNW 05:09:06 38° W 05:16:53 10° SSW visible
8 Mar ? 17:56:48 10° SW 18:04:08 29° WNW 18:11:29 10° NNW visible
9 Mar ? 02:16:33 10° NNE 02:22:13 19° ENE 02:27:51 10° ESE visible
9 Mar ? 04:11:05 10° N 04:19:46 75° W 04:28:24 10° S visible
10 Mar ? 03:21:31 10° N 03:30:07 60° E 03:38:37 10° SSE visible
10 Mar ? 05:19:46 10° NW 05:26:09 23° W 05:32:31 10° SW visible
10 Mar ? 18:16:41 10° WSW 18:22:03 17° WNW 18:27:28 10° NNW visible
11 Mar ? 02:32:41 10° NNE 02:40:09 31° ENE 02:47:31 10° SE visible
11 Mar ? 04:28:50 10° NNW 04:37:01 47° W 04:45:09 10° SSW visible
12 Mar ? 01:45:21 10° NE 01:49:45 15° ENE 01:54:07 10° E visible
12 Mar ? 03:38:51 10° N 03:47:35 89° W 03:56:16 10° S visible
13 Mar ? 02:49:28 10° N 02:57:50 49° E 03:06:08 10° SSE visible
13 Mar ? 04:47:02 10° NNW 04:54:07 29° W 05:01:12 10° SW visible
14 Mar ? 02:00:55 10° NNE 02:07:45 25° ENE 02:14:30 10° SE visible
14 Mar ? 03:56:27 10° NNW 04:04:54 58° W 04:13:19 10° SSW visible
15 Mar ? 01:15:04 10° NE 01:17:13 11° ENE 01:19:22 10° E visible
15 Mar ? 03:06:39 10° N 03:15:22 77° E 03:24:02 10° S visible
15 Mar ? 05:06:02 10° NW 05:11:04 17° W 05:16:07 10° WSW visible
15 Mar ? 18:04:27 10° W 18:07:42 12° WNW 18:10:57 10° NW visible
16 Mar ? 02:17:29 10° N 02:25:32 40° ENE 02:33:30 10° SE visible
16 Mar ? 04:14:26 10° NNW 04:22:03 36° W 04:29:41 10° SSW visible
